Location: Newark
(30.1000°N, 109.4667°E)
Time: 12:38:40
(UTC+00:00)

Vanguard 2 - Visible Passes

Search period start: 21 February 2020 00:00
Search period end: 02 March 2020 00:00
Orbit: 552 x 2939 km, 32.9° (Epoch: 21 February)

Date Brightness Start Highest point End Pass type
(mag) Time Alt. Az. Time Alt. Az. Time Alt. Az.
21 Feb 10.8 18:34:37 31° E 18:34:37 31° E 18:41:26 10° ENE visible
21 Feb 9.5 20:36:01 64° W 20:38:43 82° N 20:55:59 10° E visible
21 Feb 10.4 22:37:25 10° WNW 22:52:00 86° NNE 23:10:16 10° ESE visible
22 Feb 10.5 18:51:23 38° E 18:51:23 38° E 18:59:50 10° ENE visible
22 Feb 9.6 20:52:46 52° WNW 20:57:04 80° N 21:14:30 10° E visible
23 Feb 10.2 19:08:08 47° ENE 19:08:08 47° ENE 19:18:14 10° ENE visible
23 Feb 9.8 21:09:32 41° WNW 21:15:26 80° N 21:33:02 10° E visible
24 Feb 9.9 19:24:54 57° ENE 19:24:54 57° ENE 19:36:41 10° E visible
24 Feb 9.9 21:26:17 33° WNW 21:33:47 83° N 21:51:31 10° E visible
25 Feb 11.5 17:40:16 12° ENE 17:40:16 12° ENE 17:40:51 10° ENE visible
25 Feb 9.6 19:41:40 68° ENE 19:41:40 68° ENE 19:55:10 10° E visible
25 Feb 10.0 21:43:04 25° WNW 21:52:04 89° NNE 22:09:56 10° ESE visible
26 Feb 11.2 17:57:03 16° ENE 17:57:03 16° ENE 17:59:12 10° ENE visible
26 Feb 9.4 19:58:27 77° NNE 19:58:27 77° NNE 20:13:42 10° E visible
26 Feb 10.0 21:59:52 19° WNW 22:10:18 84° SSW 22:28:12 10° ESE visible
27 Feb 11.0 18:13:52 21° ENE 18:13:52 21° ENE 18:17:34 10° ENE visible
27 Feb 9.3 20:15:16 75° NW 20:16:21 80° N 20:32:15 10° E visible
27 Feb 10.1 22:16:41 14° WNW 22:28:29 75° SSW 22:46:15 10° ESE visible
28 Feb 10.7 18:30:43 27° ENE 18:30:43 27° ENE 18:35:59 10° E visible
28 Feb 9.3 20:32:07 64° WNW 20:34:35 84° NNE 20:50:45 10° ESE visible
28 Feb 10.3 22:33:51 10° WNW 22:46:35 64° SSW 23:04:03 10° SE visible
29 Feb 10.5 18:47:36 33° E 18:47:36 33° E 18:54:27 10° E visible
29 Feb 9.4 20:49:01 52° WNW 20:52:46 88° SSW 21:09:08 10° ESE visible
01 Mar 10.1 19:04:32 41° E 19:04:32 41° E 19:12:57 10° E visible
01 Mar 9.5 21:05:56 42° W 21:10:54 79° SSW 21:27:20 10° ESE visible
